This is the latest recevied weather packets stored in our database for station/object DB0DUS-10. If no packets are shown the sender has not sent any weather packets the latest 10 day(s).
| Time | Temp. | Humidity | Pressure | Rain* | Wind** | Luminosity | Snow |
|---|---|---|---|---|---|---|---|
| 1777698490 | 15° C | 51% | 1019.8 hPa | 0 mm | - | - | - |
| 1777697591 | 14.44° C | 52% | 1019.9 hPa | 0 mm | - | - | - |
| 1777696690 | 14.44° C | 53% | 1019.8 hPa | 0 mm | - | - | - |
| 1777696091 | 14.44° C | 53% | 1019.9 hPa | 0 mm | - | - | - |
| 1777694890 | 13.89° C | 54% | 1019.9 hPa | 0 mm | - | - | - |
| 1777693090 | 13.89° C | 54% | 1020.2 hPa | 0 mm | - | - | - |
| 1777691591 | 14.44° C | 53% | 1020.3 hPa | 0 mm | - | - | - |
| 1777691290 | 14.44° C | 53% | 1020.3 hPa | 0 mm | - | - | - |
| 1777690091 | 15° C | 51% | 1020.4 hPa | 0 mm | - | - | - |
| 1777689490 | 15° C | 51% | 1020.4 hPa | 0 mm | - | - | - |
| 1777688592 | 15° C | 50% | 1020.5 hPa | 0 mm | - | - | - |
| 1777687690 | 15.56° C | 49% | 1020.6 hPa | 0 mm | - | - | - |
| 1777687124 | 15.56° C | 48% | 1020.6 hPa | 0 mm | - | - | - |
| 1777687091 | 15.56° C | 48% | 1020.6 hPa | 0 mm | - | - | - |
| 1777685890 | 15.56° C | 48% | 1020.7 hPa | 0 mm | - | - | - |
| 1777685592 | 15.56° C | 48% | 1020.8 hPa | 0 mm | - | - | - |
| 1777684090 | 15.56° C | 48% | 1021.1 hPa | 0 mm | - | - | - |
| 1777682591 | 16.11° C | 47% | 1021.3 hPa | 0 mm | - | - | - |
| 1777682290 | 16.11° C | 47% | 1021.3 hPa | 0 mm | - | - | - |
| 1777681091 | 16.11° C | 46% | 1021.6 hPa | 0 mm | - | - | - |
| 1777680490 | 16.11° C | 45% | 1021.7 hPa | 0 mm | - | - | - |
| 1777679591 | 16.67° C | 44% | 1021.8 hPa | 0 mm | - | - | - |
| 1777678690 | 16.67° C | 43% | 1021.9 hPa | 0 mm | - | - | - |
| 1777678091 | 17.22° C | 43% | 1022 hPa | 0 mm | - | - | - |
| 1777676890 | 17.22° C | 42% | 1021.9 hPa | 0 mm | - | - | - |
* Rain latest hour (hover to see other rain measurements)
** Current wind speed in m/s (hover to see current wind gust speed)